Zurück zum Katalog

FENGYUN 1C DEB

AktivSSO
NORAD 30823·DEBRIS·🇨🇳 China

Gestartet May 10, 1999 von Taiyuan Satellite Launch Center

Loading…

Nächste Überflüge (nächste 24 Stunden)

TLE

AktuellSource: Space-Track

Epoche: Sep 14, 2026, 08:50 UTC

1 30823U 99025AVH 26257.36855981  .00000171  00000-0  12702-3 0  9992
2 30823  98.8022  33.6346 0133592  34.5901 352.0311 14.02846047998981

Verfolge FENGYUN 1C DEB in Echtzeit mit AllMySat

Download on the App Store